User: anonymous   Login
Location: Caltech
(34.1382°N, 118.1253°W)
Time: 08:31:16
(UTC-07:00)
Language:

Iridium 21 - Orbit

View from above orbital plane
View from above orbital plane
View from above satellite
View from above satellite

Ground track
Ground track

The orbit data is extracted from the following two-line orbital elements,

1 25778U 99032B   15089.39757807  .00000744  00000-0  25847-3 0  9995
2 25778 086.4011 202.4328 0002047 102.9256 321.4176 14.34224319832044
Epoch (UTC): 30 March 2015 09:32:30
Eccentricity: 0.0002047
inclination: 86.4011°
perigee height: 776 km
apogee height: 779 km
right ascension of ascending node: 202.4328°
argument of perigee: 102.9256°
revolutions per day: 14.34224319
mean anomaly at epoch: 321.4176°
orbit number at epoch: 83204

The dashed part of the orbit path shows where the satellite is in the earth's shadow,  

DLR